Probability
0 0 0 1 2 1 0 0 0 0 1 3 7 11 14 15 15 16 19 21 22 22 21 20 17 14 16 20 23 26 28 29 29 29 28 26 24 22 20 19 17 14 11 10
0 0 0 1 2 1 0 0 0 0 2 6 11 14 16 16 17 18 20 22 23 21 21 20 17 16 18 20 22 24 25 27 28 28 26 24 22 21 19 17 16 14 12 12
0 0 0 1 1 1 1 1 1 2 5 10 16 18 17 17 18 20 21 22 21 20 20 19 18 18 19 19 20 21 22 23 25 24 23 21 19 18 18 16 15 14 14 14
0 0 0 0 0 1 2 2 4 7 10 15 19 20 17 17 19 20 19 17 18 17 16 16 17 17 17 16 16 18 19 19 19 19 19 18 17 16 16 15 14 14 14 13
1 1 0 0 0 0 1 3 7 11 14 18 20 21 19 19 20 20 17 14 14 15 14 13 15 14 12 11 12 14 15 15 14 15 15 15 15 14 15 16 16 15 13 12
2 1 0 0 0 1 2 5 8 12 15 18 19 20 20 20 21 19 15 14 13 12 11 9 10 10 8 8 9 10 12 12 12 12 11 11 12 13 15 18 19 18 15 14
1 1 0 0 0 1 3 6 9 12 14 16 16 18 18 19 19 17 14 13 12 9 7 6 6 6 6 6 6 7 9 11 11 10 9 9 9 11 15 18 20 19 17 15
0 0 0 1 3 3 3 6 9 12 14 15 16 16 16 16 15 13 12 11 9 7 5 5 5 6 5 5 4 5 6 8 9 10 10 10 10 10 13 16 18 19 17 14
2 3 3 5 7 7 6 7 9 11 13 15 17 17 14 12 11 9 8 7 6 6 6 6 6 6 6 6 5 3 4 6 7 9 11 12 12 11 12 14 17 17 15 13
6 6 7 9 10 10 9 8 9 10 12 15 16 15 12 10 9 7 5 4 4 5 6 6 6 6 6 6 5 4 3 4 6 8 10 11 12 12 12 13 14 14 12 11
6 6 7 8 8 9 10 9 9 10 11 12 13 12 10 9 8 6 4 3 3 4 4 4 5 6 6 5 5 4 3 2 4 6 7 9 10 10 10 9 9 9 8 8
3 4 5 5 6 7 7 7 8 8 9 10 11 11 10 9 6 4 3 3 3 3 3 3 4 5 5 4 4 4 3 1 2 4 6 7 7 7 6 4 3 3 4 4
2 3 4 4 4 4 4 4 5 6 7 9 10 11 11 8 5 3 3 3 3 3 3 3 3 4 3 3 3 3 3 2 2 3 5 6 6 6 5 3 2 1 1 1
2 3 3 3 3 2 2 3 4 5 6 7 9 9 9 7 5 3 3 3 3 3 3 3 3 2 2 3 3 3 3 3 2 2 3 5 6 6 6 5 3 1 0 0
1 1 2 3 3 3 3 5 6 6 8 8 7 7 7 6 5 4 3 3 3 3 2 2 1 1 1 2 3 3 3 3 2 1 2 5 6 6 6 4 2 1 0 0
0 0 1 2 3 3 5 6 6 7 9 9 8 7 6 6 5 4 3 2 2 1 1 1 0 0 0 1 3 3 3 3 2 1 1 3 4 5 4 2 1 0 0 0
0 0 1 2 3 4 4 5 6 6 9 11 9 7 6 5 5 4 2 1 1 0 0 0 0 0 0 1 2 3 3 3 2 1 0 1 1 2 1 0 0 1 1 0
0 0 1 2 3 3 3 3 4 5 8 10 9 6 4 3 3 3 1 0 0 0 0 0 0 0 0 1 2 3 3 3 2 1 0 0 0 0 0 0 0 1 1 1
0 0 0 1 2 2 3 3 3 4 6 7 6 3 1 1 1 1 1 1 1 1 0 0 0 0 0 1 2 3 3 3 2 1 0 0 0 0 1 0 0 1 1 0
1 1 0 1 2 2 2 2 3 3 4 3 3 1 0 0 0 0 0 1 1 1 0 0 0 0 0 0 1 1 2 2 1 0 0 0 0 0 0 0 0 0 0 0
2 1 1 2 3 2 1 1 2 2 2 1 1 0 0 0 0 0 0 0 1 1 0 0 0 0 0 0 0 0 1 1 0 0 0 0 0 0 0 0 0 0 0 0
2 2 2 3 3 3 1 1 1 1 1 0 0 0 0 0 0 0 1 1 0 0 0 0 0 0 0 0 0 0 0 0 0 0 0 0 0 0 0 0 0 0 0 0
2 2 3 3 3 3 2 1 0 0 0 0 0 0 0 0 0 0 1 1 1 0 0 0 0 0 0 0 0 0 0 0 0 0 0 0 0 0 0 0 0 0 0 0
2 2 2 2 2 2 1 0 0 0 0 0 0 0 0 0 0 0 0 1 1 0 0 1 0 0 0 0 0 0 0 0 0 0 0 0 0 0 0 0 0 0 0 0
1 1 1 1 1 0 0 0 0 0 0 0 0 0 0 0 0 0 0 0 0 0 0 0 0 0 0 0 0 0 0 0 0 0 0 0 0 0 0 0 0 0 0 0
0 0 0 0 0 0 0 0 0 0 0 0 0 0 0 0 0 0 0 0 0 0 0 0 0 0 0 0 0 0 0 0 0 0 0 0 0 0 0 0 0 0 0 0
0 0 0 0 0 0 0 0 0 0 0 0 0 0 0 0 0 0 0 0 0 0 0 0 0 0 0 0 0 0 0 0 0 0 0 0 0 0 0 0 0 0 0 0
Wind_Speed
3 3 2 2 1 2 3 5 5 5 4 4 5 6 5 5 5 6 6 5 5 4 3 3 2 2 2 2 2 3 4 3 3 3 3 3 2 2 2 2 2 1 1 0
2 2 3 3 2 2 2 2 4 4 1 2 4 6 5 5 5 5 5 5 4 4 3 2 2 2 2 2 1 3 3 3 2 2 2 2 3 2 2 1 1 1 1 1
1 2 4 3 1 2 1 2 5 5 5 4 6 6 5 6 6 5 5 4 4 4 3 2 2 2 2 2 1 2 2 2 1 2 2 2 2 1 2 2 2 1 1 1
2 3 1 6 3 4 3 1 3 5 5 7 8 5 4 6 8 7 6 5 4 3 3 2 2 2 2 2 2 2 1 1 1 1 1 1 2 2 2 2 2 2 1 1
4 3 2 4 2 3 4 0 2 6 7 7 7 7 3 2 5 6 6 5 4 3 3 2 2 2 3 3 2 2 1 0 1 1 1 1 1 1 1 2 1 2 1 2
4 4 4 6 4 2 7 1 1 5 7 8 6 4 3 3 4 5 5 4 4 3 4 3 2 3 4 2 2 1 1 0 0 1 2 2 2 2 2 2 2 2 2 2
4 3 4 5 3 3 4 6 4 5 7 7 5 5 5 5 4 5 5 4 4 4 3 2 2 3 3 2 1 1 1 1 0 1 1 2 2 1 1 1 1 1 1 2
4 3 6 4 3 5 6 4 5 6 6 6 6 6 6 5 5 4 4 4 4 4 2 2 2 3 2 1 1 1 1 1 1 1 1 1 1 1 1 1 1 1 1 2
6 6 5 2 4 4 6 6 5 5 6 8 8 7 6 5 5 4 4 3 3 4 3 2 1 2 2 1 1 1 2 1 1 1 1 0 1 1 1 1 1 1 1 2
3 1 1 3 5 5 6 7 6 7 8 8 8 8 6 5 4 3 3 3 3 3 2 1 1 1 1 0 1 2 1 1 1 1 1 1 0 1 1 1 1 1 1 2
3 0 3 4 4 6 7 9 9 8 8 8 8 7 6 5 4 3 3 2 2 3 2 0 1 1 0 0 1 1 1 1 1 0 0 0 0 1 1 2 3 3 3 3
4 5 4 2 2 7 9 7 7 7 6 6 7 7 5 4 3 3 3 2 3 2 1 1 1 1 2 1 0 1 0 1 1 1 0 0 0 1 2 2 3 3 4 3
4 3 4 4 5 6 8 7 6 7 7 6 5 6 6 4 3 3 3 3 2 1 1 1 2 2 2 2 1 0 1 1 1 1 1 1 1 0 1 3 3 3 3 3
5 6 5 4 4 5 7 7 7 7 6 6 5 5 5 4 4 4 3 2 2 2 1 1 2 2 3 2 2 1 1 1 1 1 1 1 1 1 1 1 2 2 2 2
4 6 6 4 5 6 6 7 8 6 5 5 4 5 5 5 4 2 2 2 2 2 2 1 2 3 4 3 2 2 1 1 1 1 1 1 1 1 1 1 1 1 1 2
5 6 7 7 6 6 7 8 7 5 4 4 4 4 4 4 3 2 1 2 3 1 0 1 2 3 3 2 2 2 2 3 2 1 1 1 1 1 1 1 1 1 2 2
6 5 6 6 5 4 5 6 6 5 5 5 4 3 4 4 3 2 1 1 1 1 1 1 2 2 2 2 2 1 2 2 3 1 1 1 1 1 1 1 1 2 2 2
6 5 6 7 6 4 4 5 5 5 5 5 4 4 4 4 3 1 1 0 1 1 1 1 1 1 2 2 2 1 1 1 1 1 1 1 1 1 1 1 1 1 2 1
5 5 4 5 5 5 4 4 4 4 4 4 4 4 3 3 2 1 1 1 1 1 3 2 1 1 1 2 2 1 1 2 1 1 1 2 1 1 1 1 1 1 1 0
4 5 4 4 5 5 4 3 4 4 4 4 4 3 2 2 2 2 2 1 2 2 2 2 1 1 1 2 3 1 1 2 2 2 2 1 1 1 1 0 0 0 0 0
4 5 5 5 4 4 4 4 5 4 3 4 4 3 2 2 2 2 2 1 3 2 1 1 1 1 1 1 2 1 1 1 1 1 1 1 1 1 1 1 1 1 1 1
3 4 4 4 4 3 2 3 4 4 4 3 3 3 2 2 1 1 1 2 3 1 1 1 1 1 1 1 1 1 1 1 1 1 1 1 1 1 1 1 2 2 1 1
4 4 4 4 4 3 3 3 3 4 3 3 2 2 2 2 2 2 1 2 1 2 1 1 2 2 1 0 1 1 1 1 1 1 1 1 1 0 0 1 1 1 1 2
3 3 3 3 4 4 3 1 2 2 2 2 2 2 2 1 0 1 2 2 2 2 2 2 3 2 1 0 0 0 0 0 1 1 1 1 1 1 1 1 1 1 1 2
3 3 3 4 3 2 2 1 2 2 1 1 1 1 1 1 2 1 1 1 2 2 1 2 2 2 1 0 0 0 0 0 0 0 0 0 1 1 1 1 1 1 1 1
2 2 2 2 2 2 1 1 1 1 2 1 0 0 0 0 0 0 0 1 1 1 1 0 0 0 0 0 0 0 0 1 1 1 1 0 1 1 1 1 1 1 1 1
2 1 1 1 1 1 1 2 2 2 2 2 1 1 1 0 0 0 0 0 0 0 1 1 1 1 1 0 0 0 0 1 1 1 1 1 1 1 1 1 1 1 1 1
Wind_Direction
210 220 134 122 117 97 121 164 168 202 189 201 170 151 143 138 127 113 106 105 111 110 97 97 99 106 123 142 160 164 160 170 191 192 184 175 167 170 174 177 177 162 152 196
351 14 68 57 81 115 124 155 152 141 218 227 139 119 117 126 121 118 116 116 111 106 100 97 95 93 91 90 104 125 137 163 177 165 158 166 173 176 174 173 162 131 149 182
289 329 58 2 302 147 154 164 153 174 203 155 124 128 144 144 137 138 137 133 130 126 120 121 115 112 111 110 99 103 125 141 146 152 157 176 175 162 171 175 161 153 181 194
129 60 138 248 250 144 128 115 142 143 151 152 142 134 136 149 142 145 148 143 146 137 127 120 98 87 92 85 87 87 92 128 136 137 159 171 162 177 191 181 172 177 187 206
118 131 256 293 286 155 131 2 172 150 143 134 123 89 65 155 140 139 142 143 147 136 123 97 81 87 85 67 59 64 51 171 184 166 158 160 169 182 182 167 189 196 207 222
125 139 210 241 266 165 102 58 244 147 144 143 125 127 207 181 125 113 112 111 114 103 92 85 74 79 77 62 55 34 334 295 246 178 174 185 188 187 184 180 200 208 235 246
144 167 242 244 229 114 127 210 198 148 142 142 149 173 163 135 119 118 114 105 102 101 102 112 106 96 88 69 35 309 330 11 341 228 203 189 179 175 164 172 179 203 242 268
145 153 235 249 124 154 191 170 142 131 131 126 122 112 111 112 111 108 102 97 101 100 81 65 91 97 82 37 311 3 35 29 343 320 248 162 149 164 158 169 173 224 251 282
176 203 231 196 140 155 146 123 120 115 121 117 115 113 110 108 108 104 105 106 101 104 89 59 71 101 97 321 342 45 34 8 344 349 349 91 154 173 175 190 204 240 243 263
76 14 57 91 93 91 101 108 106 107 109 110 115 116 114 115 110 103 97 101 100 99 89 46 27 65 105 3 45 69 38 343 332 9 348 352 315 181 182 214 229 248 245 252
91 169 51 36 88 108 98 94 92 93 104 117 120 122 123 120 121 113 98 85 90 103 108 10 13 40 36 20 72 64 8 327 314 282 247 317 302 247 217 226 216 207 222 223
185 205 152 172 144 109 100 99 104 103 102 112 122 126 123 125 126 118 109 94 85 75 70 33 17 353 339 333 3 116 0 322 305 275 277 296 71 347 345 281 280 239 228 216
168 160 129 124 106 101 108 110 103 102 114 117 116 121 122 121 118 112 108 103 101 87 51 22 17 357 335 334 354 286 239 268 289 280 252 260 246 228 307 328 331 305 282 260
119 102 85 83 101 99 103 102 96 94 96 108 113 113 116 110 107 108 118 130 119 94 62 27 14 346 326 327 330 319 263 256 248 252 243 230 230 235 233 252 300 320 301 268
98 115 127 111 93 100 102 100 94 91 92 87 96 108 115 118 123 129 133 123 100 81 55 33 7 328 325 342 348 335 309 280 253 251 253 237 235 236 242 252 266 296 328 325
113 106 108 105 101 103 107 111 113 118 116 107 104 109 119 122 121 119 119 120 113 109 351 346 321 308 321 347 351 346 336 319 311 272 274 270 248 242 266 271 272 282 279 273
123 125 122 119 116 114 127 133 137 138 134 129 129 123 112 108 100 93 87 114 134 167 217 261 292 303 328 345 348 331 327 321 321 311 265 245 229 236 247 249 252 259 261 256
134 144 144 142 137 125 120 120 126 133 139 136 126 117 118 122 134 159 182 123 88 15 311 287 295 317 334 342 343 323 310 306 307 304 295 278 255 238 226 239 268 276 293 309
110 116 118 120 126 125 130 134 140 139 135 130 127 135 147 150 155 166 162 133 139 264 284 284 295 341 324 326 350 335 329 335 338 323 313 302 299 288 265 247 260 263 265 318
106 112 115 115 115 126 140 138 132 127 130 129 124 120 123 152 166 163 153 191 226 233 250 265 257 286 302 317 347 335 335 345 353 344 346 357 351 348 351 352 324 293 338 280
117 124 125 122 117 117 135 138 131 132 132 128 132 142 156 176 175 163 153 238 276 271 251 217 205 262 290 318 337 345 348 348 352 345 345 335 336 355 3 358 349 337 330 311
118 120 120 120 120 118 127 126 130 135 130 126 128 134 135 140 156 167 210 220 239 235 197 207 231 257 299 328 327 332 337 339 327 330 346 343 356 7 360 345 328 324 328 320
105 108 112 116 120 118 102 105 118 128 132 137 142 149 157 174 176 168 253 259 226 197 186 221 246 258 286 286 311 324 345 354 351 349 339 323 314 310 328 335 337 345 347 340
90 98 114 117 109 103 102 122 122 129 142 153 158 159 157 149 269 246 221 211 201 206 218 237 243 260 262 255 305 354 14 4 342 335 339 345 349 358 355 352 350 354 354 355
121 122 114 109 112 134 160 137 99 99 109 104 100 109 135 163 183 236 239 220 210 204 231 242 235 248 250 300 270 278 302 309 305 304 342 355 339 340 348 354 1 4 6 8
125 136 145 156 160 168 158 128 124 136 131 114 49 343 66 65 98 121 187 244 232 204 205 233 210 208 238 243 258 296 313 337 6 15 12 359 358 17 10 5 4 10 3 21
95 103 101 70 35 131 135 132 139 156 157 154 191 230 195 187 200 178 137 350 219 192 190 187 178 175 181 181 220 15 14 12 27 39 38 34 30 24 338 327 330 344 23 39